Warsaw, Poland

9:54 AM CEST on May 27, 2017 (GMT +0200)
Okecie

Weather History for EPWA - September, 2013

Change the Weather History Date:

Saturday, September 28, 2013

  Actual Average Record
Temperature  
Mean Temperature 47 °F -  
Max Temperature 53 °F 56 °F 71 °F (1999)
Min Temperature 41 °F 41 °F 36 °F (2016)
Degree Days  
Heating Degree Days 18    
Moisture  
Dew Point 43 °F    
Average Humidity 88    
Maximum Humidity 100    
Minimum Humidity 61    
Precipitation  
Precipitation 0.04 in 0.05 in - ()
Sea Level Pressure  
Sea Level Pressure 29.96 in    
Wind  
Wind Speed 7 mph ()    
Max Wind Speed 15 mph    
Max Gust Speed 26 mph    
Visibility 5.9 miles    
Events Fog , Rain    
Averages and records for this station are not official NWS values.
T = Trace of Precipitation, MM = Missing Value Source: Averaged Metar Reports

Daily Weather History Graph

Daily Weather History Graph

Search for Another Location

Airport or City:

Trip Planner

Search our weather history database for the weather conditions in past years. The results will help you decide how hot, cold, wet, or windy it might be!

Date:

Astronomy

Sep. 28, 2013 Rise Set
Actual Time 6:32 AM CEST 6:20 PM CEST
Civil Twilight 5:58 AM CEST 6:54 PM CEST
Nautical Twilight 5:18 AM CEST 7:33 PM CEST
Astronomical Twilight 4:37 AM CEST 8:14 PM CEST
Moon No Moon Rise 3:04 PM CEST (9/28)
Length of Visible Light 12h 55m
Length of Day
11h 48m
Last Quarter, 38% of the Moon is Illuminated
Sep 28
Last Quarter
Oct 5
New
Oct 12
First Quarter
Oct 19
Full
Oct 27
Last Quarter

Hourly Weather History & Observations

Time (CEST) Temp. Windchill Dew Point Humidity Pressure Visibility Wind Dir Wind Speed Gust Speed Precip Events Conditions
12:00 AM 44.6 °F - 42.8 °F 93% 29.95 in 6.2 mi Variable 2.3 mph - N/A Fog Shallow Fog
12:30 AM 44.6 °F 41.4 °F 44.6 °F 100% 29.95 in 6.2 mi WSW 5.8 mph - N/A Fog Shallow Fog
1:00 AM 44.6 °F 42.2 °F 44.6 °F 100% 29.95 in 5.0 mi West 4.6 mph - N/A   Mostly Cloudy
1:30 AM 44.6 °F 41.4 °F 44.6 °F 100% 29.92 in 6.2 mi WSW 5.8 mph - N/A   Mostly Cloudy
2:00 AM 45 °F - 44 °F 94% 29.96 in 6 mi WSW 4.5 mph - -   Partly Cloudy
2:00 AM 44.6 °F 40.7 °F 44.6 °F 100% 29.92 in 6.2 mi West 6.9 mph - N/A   Mostly Cloudy
2:30 AM 44.6 °F 39.2 °F 44.6 °F 100% 29.92 in 3.1 mi West 10.4 mph - N/A   Mostly Cloudy
3:00 AM 44.6 °F 40.2 °F 42.8 °F 93% 29.92 in 4.3 mi West 8.1 mph - N/A   Mostly Cloudy
3:30 AM 44.6 °F 39.7 °F 42.8 °F 93% 29.92 in 5.0 mi WNW 9.2 mph - N/A   Mostly Cloudy
4:00 AM 42.8 °F 38.0 °F 42.8 °F 100% 29.92 in 5.0 mi West 8.1 mph - N/A   Mostly Cloudy
4:30 AM 42.8 °F 38.0 °F 41.0 °F 93% 29.95 in 5.0 mi West 8.1 mph - N/A   Mostly Cloudy
5:00 AM 43 °F - 42 °F 95% 29.95 in 5 mi West 8.9 mph - -   Mist
5:00 AM 42.8 °F 38.0 °F 41.0 °F 93% 29.95 in 5.0 mi West 8.1 mph - N/A   Mostly Cloudy
5:30 AM 42.8 °F 37.5 °F 41.0 °F 93% 29.92 in 5.0 mi West 9.2 mph - N/A   Mostly Cloudy
6:00 AM 41.0 °F 36.4 °F 41.0 °F 100% 29.92 in 3.1 mi West 6.9 mph - N/A   Mostly Cloudy
6:30 AM 41.0 °F 35.8 °F 41.0 °F 100% 29.92 in 1.6 mi West 8.1 mph - N/A   Mostly Cloudy
7:00 AM 41.0 °F 35.8 °F 41.0 °F 100% 29.95 in 1.6 mi West 8.1 mph - N/A   Mostly Cloudy
7:30 AM 41.0 °F 35.8 °F 41.0 °F 100% 29.95 in 1.9 mi West 8.1 mph - N/A   Scattered Clouds
8:00 AM 42 °F - 41 °F 95% 29.97 in 2 mi West 6.7 mph - -   Mist
8:00 AM 41.0 °F 36.4 °F 41.0 °F 100% 29.95 in 2.5 mi West 6.9 mph - N/A   Scattered Clouds
8:30 AM 42.8 °F 37.5 °F 41.0 °F 93% 29.95 in 2.5 mi West 9.2 mph - N/A   Mostly Cloudy
9:00 AM 42.8 °F 37.5 °F 42.8 °F 100% 29.95 in 2.5 mi West 9.2 mph - N/A   Mostly Cloudy
9:30 AM 44.6 °F 39.2 °F 42.8 °F 93% 29.95 in 4.3 mi West 10.4 mph - N/A   Mostly Cloudy
10:00 AM 46.4 °F 42.4 °F 42.8 °F 87% 29.95 in 5.0 mi WNW 8.1 mph - N/A   Mostly Cloudy
10:30 AM 46.4 °F 41.9 °F 42.8 °F 87% 29.95 in 6.2 mi WNW 9.2 mph - N/A   Mostly Cloudy
11:00 AM 49 °F - 44 °F 76% 29.99 in 6 mi West 8.9 mph - -   Mostly Cloudy
11:00 AM 48.2 °F - 44.6 °F 87% 29.98 in 6.2 mi West 8.1 mph - N/A   Mostly Cloudy
11:30 AM 50.0 °F - 42.8 °F 76% 29.98 in 6.2 mi WNW 9.2 mph - N/A   Mostly Cloudy
12:00 PM 50.0 °F - 44.6 °F 82% 29.98 in 6.2 mi WNW 10.4 mph - N/A   Scattered Clouds
12:30 PM 50.0 °F - 42.8 °F 76% 29.95 in 6.2 mi WNW 10.4 mph - N/A   Partly Cloudy
1:00 PM 50.0 °F - 41.0 °F 71% 29.95 in 6.2 mi WNW 10.4 mph - N/A   Partly Cloudy
1:30 PM 51.8 °F - 42.8 °F 71% 29.95 in 6.2 mi WNW 10.4 mph 26.5 mph N/A   Partly Cloudy
2:00 PM 51 °F - 43 °F 65% 29.98 in 12 mi West 8.9 mph - -   Mostly Cloudy
2:00 PM 51.8 °F - 42.8 °F 71% 29.95 in 6.2 mi West 11.5 mph 24.2 mph N/A   Scattered Clouds
2:30 PM 51.8 °F - 42.8 °F 71% 29.95 in 6.2 mi WNW 12.7 mph - N/A   Scattered Clouds
3:00 PM 51.8 °F - 42.8 °F 71% 29.95 in 6.2 mi West 12.7 mph - N/A   Scattered Clouds
3:30 PM 51.8 °F - 41.0 °F 67% 29.95 in 6.2 mi WNW 15.0 mph 26.5 mph N/A   Scattered Clouds
4:00 PM 51.8 °F - 42.8 °F 71% 29.95 in 6.2 mi West 15.0 mph - N/A   Partly Cloudy
4:30 PM 51.8 °F - 42.8 °F 71% 29.95 in 6.2 mi WNW 11.5 mph - N/A   Partly Cloudy
5:00 PM 51 °F - 42 °F 61% 29.96 in 19 mi West 11.2 mph - -   Scattered Clouds
5:00 PM 50.0 °F - 42.8 °F 76% 29.95 in 6.2 mi WNW 12.7 mph - N/A   Partly Cloudy
5:30 PM 50.0 °F - 42.8 °F 76% 29.95 in 6.2 mi WNW 9.2 mph - N/A   Partly Cloudy
6:00 PM 50.0 °F - 42.8 °F 76% 29.95 in 6.2 mi WNW 8.1 mph - N/A   Partly Cloudy
6:30 PM 50.0 °F - 42.8 °F 76% 29.95 in 6.2 mi WNW 11.5 mph 23.0 mph N/A Rain Light Rain Showers
7:00 PM 46.4 °F 42.9 °F 44.6 °F 93% 29.98 in 6.2 mi NW 6.9 mph - N/A Rain Light Rain Showers
7:30 PM 46.4 °F 43.5 °F 44.6 °F 93% 29.98 in 6.2 mi NW 5.8 mph - N/A   Mostly Cloudy
8:00 PM 46 °F - 44 °F 88% 30.01 in 19 mi WNW 4.5 mph - - Rain Light Rain Showers
8:00 PM 44.6 °F 41.4 °F 42.8 °F 93% 29.98 in 6.2 mi NW 5.8 mph - N/A   Scattered Clouds
8:30 PM 44.6 °F 42.2 °F 42.8 °F 93% 29.98 in 6.2 mi NW 4.6 mph - N/A   Partly Cloudy
9:00 PM 44.6 °F - 42.8 °F 93% 30.01 in 6.2 mi WNW 2.3 mph - N/A Fog Shallow Fog
9:30 PM 42.8 °F 40.1 °F 42.8 °F 100% 30.01 in 6.2 mi WNW 4.6 mph - N/A Fog Shallow Fog
10:00 PM 42.8 °F 40.1 °F 42.8 °F 100% 30.01 in 6.2 mi NW 4.6 mph - N/A   Mostly Cloudy
10:30 PM 44.6 °F 43.1 °F 42.8 °F 93% 30.01 in 6.2 mi WNW 3.5 mph - N/A   Mostly Cloudy
11:00 PM 45 °F - 43 °F 92% 30.03 in 9 mi WNW 4.5 mph - -   Mostly Cloudy
11:00 PM 44.6 °F 42.2 °F 42.8 °F 93% 30.01 in 6.2 mi WNW 4.6 mph - N/A   Mostly Cloudy
11:30 PM 44.6 °F 42.2 °F 42.8 °F 93% 30.01 in 6.2 mi NW 4.6 mph - N/A   Mostly Cloudy